Starlink 31144

operational
NORAD ID: 58682 Int'l Des: 2023-211 Owner: SPXS Country: US Constellation: starlink
LEOCIRCULAR

Über Starlink 31144

Beschreibung wird geladen...

Live-Position

3D-Globus wird geladen...

Nächste Überflüge

Höhenverlauf

Altitude vs Time

uPlot chart will show altitude changes over time

Zweizeiliger Elementsatz

1 58682U 23211R 25307.65178539 .00009285 00000-0 34645-3 0 9998
2 58682 42.9997 76.6475 0001227 278.3376 81.7336 15.27586312103196
Epoch: 3. Nov. 2025 • Age: 12 hours

Aktueller Status

Höhe 483.7 km
Geschwindigkeit 7.63 km/s
Subsatellitenpunkt 26.04°N, 130.32°E
Startdatum 29. Dez. 2023
Alter 1.8 years
Typ internet

Technische Details

Klassifizierung Payload
Masse 730.00 kg
Trockenmasse 700.00 kg
Gesamtmasse 730.00 kg
Länge 0.30 m
Durchmesser 4.10 m
Spannweite 29.00 m
Form Box + pan
Hersteller SPXS
Bus-Typ Starlink V2M
Phasenstatus In Orbit
Besitzer/Staat SPXS/US

Große Konstellationen

Loading constellations...